KINEIS-4A

Last updated on Mon Dec 15 2025 00:02:49 GMT+0000 (Coordinated Universal Time)

1 63303U 25056D 25348.30988853 .00002956 00000+0 47549-3 0 9992 2 63303 98.0005 111.0381 0003092 147.9229 212.2167 14.72293655 39920
UTC large
Height (km)
Speed (km/s)
/
Latitude / Longitude
Inclination (degrees)
Orbital Period (minutes)
Azimuth
Elevation
Range (km)
Doppler Factor

Next 0 passes for location: London (51.5072 / 0.1276)

Sorry there are no passes over London.